Year,Month,Day,Hour,Minute,Value (Times are PST for temperature in C)
2005,10,11,00,00,11.90
2005,10,11,00,01,11.90
2005,10,11,00,02,11.90
2005,10,11,00,03,11.90
2005,10,11,00,04,12.00
2005,10,11,00,05,12.00
2005,10,11,00,06,11.90
2005,10,11,00,07,11.90
2005,10,11,00,08,11.90
2005,10,11,00,09,11.90
2005,10,11,00,10,11.80
2005,10,11,00,11,11.80
2005,10,11,00,12,11.70
2005,10,11,00,13,11.70
2005,10,11,00,14,11.70
2005,10,11,00,15,11.60
2005,10,11,00,16,11.60
2005,10,11,00,17,11.40
2005,10,11,00,18,11.40
2005,10,11,00,19,11.40
2005,10,11,00,20,11.40
2005,10,11,00,21,11.40
2005,10,11,00,22,11.40
2005,10,11,00,23,11.40
2005,10,11,00,24,11.40
2005,10,11,00,25,11.40
2005,10,11,00,26,11.40
2005,10,11,00,27,11.40
2005,10,11,00,28,11.30
2005,10,11,00,29,11.30
2005,10,11,00,30,11.30
2005,10,11,00,31,11.30
2005,10,11,00,32,11.30
2005,10,11,00,33,11.30
2005,10,11,00,34,11.20
2005,10,11,00,35,11.20
2005,10,11,00,36,11.10
2005,10,11,00,37,11.10
2005,10,11,00,38,11.10
2005,10,11,00,39,11.10
2005,10,11,00,40,11.10
2005,10,11,00,41,10.90
2005,10,11,00,42,10.90
2005,10,11,00,43,10.90
2005,10,11,00,44,10.90
2005,10,11,00,45,10.80
2005,10,11,00,46,10.80
2005,10,11,00,47,10.80
2005,10,11,00,48,10.70
2005,10,11,00,49,10.70
2005,10,11,00,50,10.70
2005,10,11,00,51,10.80
2005,10,11,00,52,10.80
2005,10,11,00,53,10.80
2005,10,11,00,54,10.80
2005,10,11,00,55,10.80
2005,10,11,00,56,10.90
2005,10,11,00,57,10.90
2005,10,11,00,58,10.90
2005,10,11,00,59,10.90
2005,10,11,01,00,10.90
2005,10,11,01,01,10.90
2005,10,11,01,02,10.90
2005,10,11,01,03,10.90
2005,10,11,01,04,11.00
2005,10,11,01,05,11.10
2005,10,11,01,06,11.10
2005,10,11,01,07,11.10
2005,10,11,01,08,11.10
2005,10,11,01,09,11.10
2005,10,11,01,10,11.10
2005,10,11,01,11,11.10
2005,10,11,01,12,11.10
2005,10,11,01,13,11.10
2005,10,11,01,14,11.10
2005,10,11,01,15,11.10
2005,10,11,01,16,11.10
2005,10,11,01,17,11.10
2005,10,11,01,18,11.10
2005,10,11,01,19,11.10
2005,10,11,01,20,11.10
2005,10,11,01,21,11.10
2005,10,11,01,22,11.10
2005,10,11,01,23,11.10
2005,10,11,01,24,11.10
2005,10,11,01,25,11.10
2005,10,11,01,26,11.10
2005,10,11,01,27,11.10
2005,10,11,01,28,11.10
2005,10,11,01,29,11.00
2005,10,11,01,30,11.10
2005,10,11,01,31,11.10
2005,10,11,01,32,11.10
2005,10,11,01,33,11.10
2005,10,11,01,34,11.10
2005,10,11,01,35,11.10
2005,10,11,01,36,11.00
2005,10,11,01,37,10.90
2005,10,11,01,38,10.90
2005,10,11,01,39,10.90
2005,10,11,01,40,10.90
2005,10,11,01,41,10.90
2005,10,11,01,42,10.90
2005,10,11,01,43,10.90
2005,10,11,01,44,10.90
2005,10,11,01,45,10.90
2005,10,11,01,46,10.90
2005,10,11,01,47,10.90
2005,10,11,01,48,10.90
2005,10,11,01,49,10.90
2005,10,11,01,50,10.90
2005,10,11,01,51,10.90
2005,10,11,01,52,10.90
2005,10,11,01,53,10.80
2005,10,11,01,54,10.70
2005,10,11,01,55,10.70
2005,10,11,01,56,10.60
2005,10,11,01,57,10.60
2005,10,11,01,58,10.60
2005,10,11,01,59,10.40
2005,10,11,02,00,10.40
2005,10,11,02,01,10.40
2005,10,11,02,02,10.40
2005,10,11,02,03,10.30
2005,10,11,02,04,10.30
2005,10,11,02,05,10.20
2005,10,11,02,06,10.20
2005,10,11,02,07,10.20
2005,10,11,02,08,10.10
2005,10,11,02,09,10.10
2005,10,11,02,10,10.10
2005,10,11,02,11,10.10
2005,10,11,02,12,10.10
2005,10,11,02,13,10.10
2005,10,11,02,14,10.10
2005,10,11,02,15,10.10
2005,10,11,02,16,10.10
2005,10,11,02,17,10.40
2005,10,11,02,18,10.50
2005,10,11,02,19,10.60
2005,10,11,02,20,10.60
2005,10,11,02,21,10.60
2005,10,11,02,22,10.70
2005,10,11,02,23,10.70
2005,10,11,02,24,10.70
2005,10,11,02,25,10.80
2005,10,11,02,26,10.80
2005,10,11,02,27,10.80
2005,10,11,02,28,10.80
2005,10,11,02,29,10.80
2005,10,11,02,30,10.90
2005,10,11,02,31,10.90
2005,10,11,02,32,10.90
2005,10,11,02,33,10.90
2005,10,11,02,34,10.90
2005,10,11,02,35,10.90
2005,10,11,02,36,10.90
2005,10,11,02,37,10.90
2005,10,11,02,38,10.90
2005,10,11,02,39,10.90
2005,10,11,02,40,10.90
2005,10,11,02,41,10.90
2005,10,11,02,42,10.90
2005,10,11,02,43,10.90
2005,10,11,02,44,10.90
2005,10,11,02,45,10.90
2005,10,11,02,46,10.80
2005,10,11,02,47,10.80
2005,10,11,02,48,10.80
2005,10,11,02,49,10.80
2005,10,11,02,50,10.80
2005,10,11,02,51,10.70
2005,10,11,02,52,10.70
2005,10,11,02,53,10.70
2005,10,11,02,54,10.70
2005,10,11,02,55,10.60
2005,10,11,02,56,10.60
2005,10,11,02,57,10.60
2005,10,11,02,58,10.60
2005,10,11,02,59,10.60
2005,10,11,03,00,10.60
2005,10,11,03,01,10.60
2005,10,11,03,02,10.60
2005,10,11,03,03,10.60
2005,10,11,03,04,10.60
2005,10,11,03,05,10.60
2005,10,11,03,06,10.60
2005,10,11,03,07,10.60
2005,10,11,03,08,10.60
2005,10,11,03,09,10.60
2005,10,11,03,10,10.50
2005,10,11,03,11,10.40
2005,10,11,03,12,10.40
2005,10,11,03,13,10.40
2005,10,11,03,14,10.40
2005,10,11,03,15,10.40
2005,10,11,03,16,10.40
2005,10,11,03,17,10.30
2005,10,11,03,18,10.30
2005,10,11,03,19,10.20
2005,10,11,03,20,10.20
2005,10,11,03,21,10.20
2005,10,11,03,22,10.10
2005,10,11,03,23,10.20
2005,10,11,03,24,10.20
2005,10,11,03,25,10.20
2005,10,11,03,26,10.30
2005,10,11,03,27,10.30
2005,10,11,03,28,10.30
2005,10,11,03,29,10.40
2005,10,11,03,30,10.40
2005,10,11,03,31,10.40
2005,10,11,03,32,10.40
2005,10,11,03,33,10.40
2005,10,11,03,34,10.40
2005,10,11,03,35,10.40
2005,10,11,03,36,10.40
2005,10,11,03,37,10.40
2005,10,11,03,38,10.40
2005,10,11,03,39,10.40
2005,10,11,03,40,10.40
2005,10,11,03,41,10.40
2005,10,11,03,42,10.40
2005,10,11,03,43,10.40
2005,10,11,03,44,10.30
2005,10,11,03,45,10.30
2005,10,11,03,46,10.20
2005,10,11,03,47,10.20
2005,10,11,03,48,10.10
2005,10,11,03,49,10.00
2005,10,11,03,50,9.90
2005,10,11,03,51,9.90
2005,10,11,03,52,9.90
2005,10,11,03,53,9.80
2005,10,11,03,54,9.80
2005,10,11,03,55,9.80
2005,10,11,03,56,9.80
2005,10,11,03,57,9.80
2005,10,11,03,58,9.70
2005,10,11,03,59,9.70
2005,10,11,04,00,9.70
2005,10,11,04,01,9.70
2005,10,11,04,02,9.70
2005,10,11,04,03,9.60
2005,10,11,04,04,9.50
2005,10,11,04,05,9.50
2005,10,11,04,06,9.40
2005,10,11,04,07,9.40
2005,10,11,04,08,9.40
2005,10,11,04,09,9.30
2005,10,11,04,10,9.30
2005,10,11,04,11,9.30
2005,10,11,04,12,9.30
2005,10,11,04,13,9.30
2005,10,11,04,14,9.30
2005,10,11,04,15,9.20
2005,10,11,04,16,9.20
2005,10,11,04,17,9.20
2005,10,11,04,18,9.20
2005,10,11,04,19,9.20
2005,10,11,04,20,9.20
2005,10,11,04,21,9.10
2005,10,11,04,22,9.10
2005,10,11,04,23,9.00
2005,10,11,04,24,9.00
2005,10,11,04,25,8.90
2005,10,11,04,26,8.90
2005,10,11,04,27,8.80
2005,10,11,04,28,8.70
2005,10,11,04,29,8.70
2005,10,11,04,30,8.70
2005,10,11,04,31,8.60
2005,10,11,04,32,8.60
2005,10,11,04,33,8.60
2005,10,11,04,34,8.50
2005,10,11,04,35,8.50
2005,10,11,04,36,8.50
2005,10,11,04,37,8.50
2005,10,11,04,38,8.50
2005,10,11,04,39,8.50
2005,10,11,04,40,8.40
2005,10,11,04,41,8.40
2005,10,11,04,42,8.40
2005,10,11,04,43,8.40
2005,10,11,04,44,8.40
2005,10,11,04,45,8.40
2005,10,11,04,46,8.40
2005,10,11,04,47,8.40
2005,10,11,04,48,8.40
2005,10,11,04,49,8.40
2005,10,11,04,50,8.40
2005,10,11,04,51,8.40
2005,10,11,04,52,8.40
2005,10,11,04,53,8.40
2005,10,11,04,54,8.40
2005,10,11,04,55,8.40
2005,10,11,04,56,8.40
2005,10,11,04,57,8.30
2005,10,11,04,58,8.30
2005,10,11,04,59,8.30
2005,10,11,05,00,8.30
2005,10,11,05,01,8.20
2005,10,11,05,02,8.20
2005,10,11,05,03,8.20
2005,10,11,05,04,8.20
2005,10,11,05,05,8.20
2005,10,11,05,06,8.20
2005,10,11,05,07,8.20
2005,10,11,05,08,8.20
2005,10,11,05,09,8.20
2005,10,11,05,10,8.20
2005,10,11,05,11,8.20
2005,10,11,05,12,8.10
2005,10,11,05,13,8.10
2005,10,11,05,14,8.00
2005,10,11,05,15,8.00
2005,10,11,05,16,7.90
2005,10,11,05,17,7.90
2005,10,11,05,18,7.80
2005,10,11,05,19,7.80
2005,10,11,05,20,7.80
2005,10,11,05,21,7.70
2005,10,11,05,22,7.70
2005,10,11,05,23,7.70
2005,10,11,05,24,7.70
2005,10,11,05,25,7.70
2005,10,11,05,26,7.70
2005,10,11,05,27,7.70
2005,10,11,05,28,7.70
2005,10,11,05,29,7.70
2005,10,11,05,30,7.60
2005,10,11,05,31,7.60
2005,10,11,05,32,7.60
2005,10,11,05,33,7.60
2005,10,11,05,34,7.60
2005,10,11,05,35,7.60
2005,10,11,05,36,7.50
2005,10,11,05,37,7.40
2005,10,11,05,38,7.40
2005,10,11,05,39,7.30
2005,10,11,05,40,7.30
2005,10,11,05,41,7.30
2005,10,11,05,42,7.30
2005,10,11,05,43,7.30
2005,10,11,05,44,7.30
2005,10,11,05,45,7.30
2005,10,11,05,46,7.30
2005,10,11,05,47,7.20
2005,10,11,05,48,7.20
2005,10,11,05,49,7.20
2005,10,11,05,50,7.10
2005,10,11,05,51,7.10
2005,10,11,05,52,7.10
2005,10,11,05,53,7.00
2005,10,11,05,54,7.00
2005,10,11,05,55,6.90
2005,10,11,05,56,6.90
2005,10,11,05,57,6.80
2005,10,11,05,58,6.80
2005,10,11,05,59,6.80
2005,10,11,06,00,6.80
2005,10,11,06,01,6.70
2005,10,11,06,02,6.70
2005,10,11,06,03,6.60
2005,10,11,06,04,6.60
2005,10,11,06,05,6.60
2005,10,11,06,06,6.60
2005,10,11,06,07,6.40
2005,10,11,06,08,6.50
2005,10,11,06,09,6.60
2005,10,11,06,10,6.60
2005,10,11,06,11,6.60
2005,10,11,06,12,6.60
2005,10,11,06,13,6.60
2005,10,11,06,14,6.60
2005,10,11,06,15,6.50
2005,10,11,06,16,6.40
2005,10,11,06,17,6.40
2005,10,11,06,18,6.40
2005,10,11,06,19,6.40
2005,10,11,06,20,6.40
2005,10,11,06,21,6.40
2005,10,11,06,22,6.40
2005,10,11,06,23,6.40
2005,10,11,06,24,6.40
2005,10,11,06,25,6.40
2005,10,11,06,26,6.40
2005,10,11,06,27,6.40
2005,10,11,06,28,6.40
2005,10,11,06,29,6.40
2005,10,11,06,30,6.30
2005,10,11,06,31,6.30
2005,10,11,06,32,6.30
2005,10,11,06,33,6.30
2005,10,11,06,34,6.30
2005,10,11,06,35,6.30
2005,10,11,06,36,6.30
2005,10,11,06,37,6.20
2005,10,11,06,38,6.20
2005,10,11,06,39,6.20
2005,10,11,06,40,6.20
2005,10,11,06,41,6.20
2005,10,11,06,42,6.20
2005,10,11,06,43,6.20
2005,10,11,06,44,6.20
2005,10,11,06,45,6.10
2005,10,11,06,46,6.10
2005,10,11,06,47,6.10
2005,10,11,06,48,6.10
2005,10,11,06,49,6.10
2005,10,11,06,50,6.10
2005,10,11,06,51,6.00
2005,10,11,06,52,6.00
2005,10,11,06,53,6.00
2005,10,11,06,54,6.00
2005,10,11,06,55,6.00
2005,10,11,06,56,5.90
2005,10,11,06,57,5.90
2005,10,11,06,58,5.90
2005,10,11,06,59,5.90
2005,10,11,07,00,5.90
2005,10,11,07,01,5.90
2005,10,11,07,02,5.90
2005,10,11,07,03,5.80
2005,10,11,07,04,5.80
2005,10,11,07,05,5.80
2005,10,11,07,06,5.80
2005,10,11,07,07,5.80
2005,10,11,07,08,5.90
2005,10,11,07,09,5.90
2005,10,11,07,10,5.90
2005,10,11,07,11,5.90
2005,10,11,07,12,5.90
2005,10,11,07,13,5.90
2005,10,11,07,14,5.80
2005,10,11,07,15,5.90
2005,10,11,07,16,5.90
2005,10,11,07,17,5.90
2005,10,11,07,18,5.90
2005,10,11,07,19,5.90
2005,10,11,07,20,5.90
2005,10,11,07,21,5.90
2005,10,11,07,22,5.80
2005,10,11,07,23,5.80
2005,10,11,07,24,5.80
2005,10,11,07,25,5.80
2005,10,11,07,26,5.80
2005,10,11,07,27,5.80
2005,10,11,07,28,5.80
2005,10,11,07,29,5.80
2005,10,11,07,30,5.70
2005,10,11,07,31,5.70
2005,10,11,07,32,5.70
2005,10,11,07,33,5.70
2005,10,11,07,34,5.70
2005,10,11,07,35,5.70
2005,10,11,07,36,5.70
2005,10,11,07,37,5.60
2005,10,11,07,38,5.60
2005,10,11,07,39,5.60
2005,10,11,07,40,5.50
2005,10,11,07,41,5.50
2005,10,11,07,42,5.50
2005,10,11,07,43,5.50
2005,10,11,07,44,5.40
2005,10,11,07,45,5.40
2005,10,11,07,46,5.40
2005,10,11,07,47,5.40
2005,10,11,07,48,5.40
2005,10,11,07,49,5.40
2005,10,11,07,50,5.40
2005,10,11,07,51,5.40
2005,10,11,07,52,5.40
2005,10,11,07,53,5.40
2005,10,11,07,54,5.30
2005,10,11,07,55,5.30
2005,10,11,07,56,5.30
2005,10,11,07,57,5.30
2005,10,11,07,58,5.30
2005,10,11,07,59,5.30
2005,10,11,08,00,5.30
2005,10,11,08,01,5.30
2005,10,11,08,02,5.30
2005,10,11,08,03,5.30
2005,10,11,08,04,5.30
2005,10,11,08,05,5.30
2005,10,11,08,06,5.30
2005,10,11,08,07,5.30
2005,10,11,08,08,5.30
2005,10,11,08,09,5.30
2005,10,11,08,10,5.40
2005,10,11,08,11,5.40
2005,10,11,08,12,5.50
2005,10,11,08,13,5.50
2005,10,11,08,14,5.60
2005,10,11,08,15,5.60
2005,10,11,08,16,5.60
2005,10,11,08,17,5.70
2005,10,11,08,18,5.70
2005,10,11,08,19,5.70
2005,10,11,08,20,5.80
2005,10,11,08,21,5.80
2005,10,11,08,22,5.90
2005,10,11,08,23,6.00
2005,10,11,08,24,6.10
2005,10,11,08,25,6.20
2005,10,11,08,26,6.20
2005,10,11,08,27,6.20
2005,10,11,08,28,6.20
2005,10,11,08,29,6.70
2005,10,11,08,30,6.90
2005,10,11,08,31,7.10
2005,10,11,08,32,7.30
2005,10,11,08,33,7.50
2005,10,11,08,34,7.60
2005,10,11,08,35,7.80
2005,10,11,08,36,7.90
2005,10,11,08,37,8.10
2005,10,11,08,38,8.30
2005,10,11,08,39,8.50
2005,10,11,08,40,8.50
2005,10,11,08,41,8.80
2005,10,11,08,42,8.90
2005,10,11,08,43,9.10
2005,10,11,08,44,9.20
2005,10,11,08,45,9.20
2005,10,11,08,46,9.40
2005,10,11,08,47,9.40
2005,10,11,08,48,9.50
2005,10,11,08,49,9.60
2005,10,11,08,50,9.70
2005,10,11,08,51,9.70
2005,10,11,08,52,9.80
2005,10,11,08,53,9.80
2005,10,11,08,54,9.90
2005,10,11,08,55,10.00
2005,10,11,08,56,10.10
2005,10,11,08,57,10.20
2005,10,11,08,58,10.20
2005,10,11,08,59,10.30
2005,10,11,09,00,10.40
2005,10,11,09,01,10.50
2005,10,11,09,02,10.60
2005,10,11,09,03,10.60
2005,10,11,09,04,10.70
2005,10,11,09,05,10.70
2005,10,11,09,06,10.70
2005,10,11,09,07,10.70
2005,10,11,09,08,10.70
2005,10,11,09,09,10.70
2005,10,11,09,10,10.70
2005,10,11,09,11,10.70
2005,10,11,09,12,10.70
2005,10,11,09,13,10.70
2005,10,11,09,14,10.70
2005,10,11,09,15,10.70
2005,10,11,09,16,10.90
2005,10,11,09,17,10.90
2005,10,11,09,18,11.00
2005,10,11,09,19,11.10
2005,10,11,09,20,11.20
2005,10,11,09,21,11.20
2005,10,11,09,22,11.30
2005,10,11,09,23,11.30
2005,10,11,09,24,11.30
2005,10,11,09,25,11.30
2005,10,11,09,26,11.40
2005,10,11,09,27,11.40
2005,10,11,09,28,11.40
2005,10,11,09,29,11.50
2005,10,11,09,30,11.60
2005,10,11,09,31,11.60
2005,10,11,09,32,11.60
2005,10,11,09,33,11.70
2005,10,11,09,34,11.70
2005,10,11,09,35,11.70
2005,10,11,09,36,11.80
2005,10,11,09,37,11.80
2005,10,11,09,38,11.80
2005,10,11,09,39,11.80
2005,10,11,09,40,11.80
2005,10,11,09,41,11.80
2005,10,11,09,42,11.70
2005,10,11,09,43,11.70
2005,10,11,09,44,11.70
2005,10,11,09,45,11.60
2005,10,11,09,46,11.60
2005,10,11,09,47,11.60
2005,10,11,09,48,11.60
2005,10,11,09,49,11.60
2005,10,11,09,50,11.60
2005,10,11,09,51,11.60
2005,10,11,09,52,11.60
2005,10,11,09,53,11.60
2005,10,11,09,54,11.60
2005,10,11,09,55,11.70
2005,10,11,09,56,11.70
2005,10,11,09,57,11.80
2005,10,11,09,58,11.80
2005,10,11,09,59,11.80
2005,10,11,10,00,11.90
2005,10,11,10,01,11.90
2005,10,11,10,02,11.90
2005,10,11,10,03,11.90
2005,10,11,10,04,11.90
2005,10,11,10,05,12.00
2005,10,11,10,06,12.00
2005,10,11,10,07,12.00
2005,10,11,10,08,12.00
2005,10,11,10,09,12.00
2005,10,11,10,10,12.00
2005,10,11,10,11,12.00
2005,10,11,10,12,12.00
2005,10,11,10,13,12.00
2005,10,11,10,14,12.10
2005,10,11,10,15,12.10
2005,10,11,10,16,12.10
2005,10,11,10,17,12.10
2005,10,11,10,18,12.10
2005,10,11,10,19,12.10
2005,10,11,10,20,12.10
2005,10,11,10,21,12.10
2005,10,11,10,22,12.10
2005,10,11,10,23,12.20
2005,10,11,10,24,12.20
2005,10,11,10,25,12.20
2005,10,11,10,26,12.30
2005,10,11,10,27,12.30
2005,10,11,10,28,12.30
2005,10,11,10,29,12.30
2005,10,11,10,30,12.20
2005,10,11,10,31,12.20
2005,10,11,10,32,12.10
2005,10,11,10,33,12.10
2005,10,11,10,34,12.20
2005,10,11,10,35,12.20
2005,10,11,10,36,12.20
2005,10,11,10,37,12.20
2005,10,11,10,38,12.20
2005,10,11,10,39,12.20
2005,10,11,10,40,12.10
2005,10,11,10,41,12.20
2005,10,11,10,42,12.20
2005,10,11,10,43,12.20
2005,10,11,10,44,12.20
2005,10,11,10,45,12.20
2005,10,11,10,46,12.20
2005,10,11,10,47,12.20
2005,10,11,10,48,12.20
2005,10,11,10,49,12.20
2005,10,11,10,50,12.30
2005,10,11,10,51,12.30
2005,10,11,10,52,12.30
2005,10,11,10,53,12.30
2005,10,11,10,54,12.30
2005,10,11,10,55,12.20
2005,10,11,10,56,12.20
2005,10,11,10,57,12.20
2005,10,11,10,58,12.30
2005,10,11,10,59,12.30
2005,10,11,11,00,12.30
2005,10,11,11,01,12.30
2005,10,11,11,02,12.30
2005,10,11,11,03,12.30
2005,10,11,11,04,12.30
2005,10,11,11,05,12.30
2005,10,11,11,06,12.40
2005,10,11,11,07,12.50
2005,10,11,11,08,12.60
2005,10,11,11,09,12.60
2005,10,11,11,10,12.70
2005,10,11,11,11,12.70
2005,10,11,11,12,12.70
2005,10,11,11,13,12.70
2005,10,11,11,14,12.70
2005,10,11,11,15,12.70
2005,10,11,11,16,12.70
2005,10,11,11,17,12.70
2005,10,11,11,18,12.60
2005,10,11,11,19,12.50
2005,10,11,11,20,12.40
2005,10,11,11,21,12.30
2005,10,11,11,22,12.30
2005,10,11,11,23,12.30
2005,10,11,11,24,12.20
2005,10,11,11,25,12.20
2005,10,11,11,26,12.20
2005,10,11,11,27,12.20
2005,10,11,11,28,12.30
2005,10,11,11,29,12.30
2005,10,11,11,30,12.30
2005,10,11,11,31,12.30
2005,10,11,11,32,12.40
2005,10,11,11,33,12.40
2005,10,11,11,34,12.40
2005,10,11,11,35,12.30
2005,10,11,11,36,12.30
2005,10,11,11,37,12.30
2005,10,11,11,38,12.40
2005,10,11,11,39,12.50
2005,10,11,11,40,12.50
2005,10,11,11,41,12.50
2005,10,11,11,42,12.60
2005,10,11,11,43,12.60
2005,10,11,11,44,12.60
2005,10,11,11,45,12.60
2005,10,11,11,46,12.60
2005,10,11,11,47,12.60
2005,10,11,11,48,12.60
2005,10,11,11,49,12.60
2005,10,11,11,50,12.60
2005,10,11,11,51,12.50
2005,10,11,11,52,12.50
2005,10,11,11,53,12.50
2005,10,11,11,54,12.40
2005,10,11,11,55,12.40
2005,10,11,11,56,12.40
2005,10,11,11,57,12.50
2005,10,11,11,58,12.40
2005,10,11,11,59,12.30
2005,10,11,12,00,12.30
2005,10,11,12,01,12.30
2005,10,11,12,02,12.30
2005,10,11,12,03,12.20
2005,10,11,12,04,12.20
2005,10,11,12,05,12.20
2005,10,11,12,06,12.30
2005,10,11,12,07,12.30
2005,10,11,12,08,12.30
2005,10,11,12,09,12.30
2005,10,11,12,10,12.40
2005,10,11,12,11,12.40
2005,10,11,12,12,12.40
2005,10,11,12,13,12.40
2005,10,11,12,14,12.50
2005,10,11,12,15,12.40
2005,10,11,12,16,12.30
2005,10,11,12,17,12.30
2005,10,11,12,18,12.30
2005,10,11,12,19,12.30
2005,10,11,12,20,12.30
2005,10,11,12,21,12.30
2005,10,11,12,22,12.30
2005,10,11,12,23,12.30
2005,10,11,12,24,12.30
2005,10,11,12,25,12.40
2005,10,11,12,26,12.40
2005,10,11,12,27,12.40
2005,10,11,12,28,12.50
2005,10,11,12,29,12.50
2005,10,11,12,30,12.60
2005,10,11,12,31,12.70
2005,10,11,12,32,12.80
2005,10,11,12,33,12.70
2005,10,11,12,34,12.70
2005,10,11,12,35,12.70
2005,10,11,12,36,12.70
2005,10,11,12,37,12.70
2005,10,11,12,38,12.70
2005,10,11,12,39,12.70
2005,10,11,12,40,12.80
2005,10,11,12,41,12.80
2005,10,11,12,42,12.80
2005,10,11,12,43,12.80
2005,10,11,12,44,12.80
2005,10,11,12,45,12.80
2005,10,11,12,46,12.80
2005,10,11,12,47,12.90
2005,10,11,12,48,13.00
2005,10,11,12,49,12.90
2005,10,11,12,50,12.90
2005,10,11,12,51,12.90
2005,10,11,12,52,12.90
2005,10,11,12,53,12.80
2005,10,11,12,54,12.80
2005,10,11,12,55,12.80
2005,10,11,12,56,12.70
2005,10,11,12,57,12.60
2005,10,11,12,58,12.50
2005,10,11,12,59,12.50
2005,10,11,13,00,12.50
2005,10,11,13,01,12.40
2005,10,11,13,02,12.40
2005,10,11,13,03,12.40
2005,10,11,13,04,12.30
2005,10,11,13,05,12.30
2005,10,11,13,06,12.30
2005,10,11,13,07,12.30
2005,10,11,13,08,12.30
2005,10,11,13,09,12.40
2005,10,11,13,10,12.40
2005,10,11,13,11,12.40
2005,10,11,13,12,12.50
2005,10,11,13,13,12.60
2005,10,11,13,14,12.60
2005,10,11,13,15,12.60
2005,10,11,13,16,12.70
2005,10,11,13,17,12.80
2005,10,11,13,18,12.80
2005,10,11,13,19,12.90
2005,10,11,13,20,13.00
2005,10,11,13,21,13.00
2005,10,11,13,22,12.90
2005,10,11,13,23,12.90
2005,10,11,13,24,12.90
2005,10,11,13,25,12.80
2005,10,11,13,26,12.90
2005,10,11,13,27,12.90
2005,10,11,13,28,13.00
2005,10,11,13,29,13.10
2005,10,11,13,30,13.10
2005,10,11,13,31,13.10
2005,10,11,13,32,13.00
2005,10,11,13,33,13.00
2005,10,11,13,34,13.00
2005,10,11,13,35,12.90
2005,10,11,13,36,12.90
2005,10,11,13,37,12.90
2005,10,11,13,38,12.90
2005,10,11,13,39,13.00
2005,10,11,13,40,13.00
2005,10,11,13,41,13.10
2005,10,11,13,42,13.20
2005,10,11,13,43,13.30
2005,10,11,13,44,13.30
2005,10,11,13,45,13.30
2005,10,11,13,46,13.30
2005,10,11,13,47,13.30
2005,10,11,13,48,13.30
2005,10,11,13,49,13.30
2005,10,11,13,50,13.30
2005,10,11,13,51,13.30
2005,10,11,13,52,13.20
2005,10,11,13,53,13.10
2005,10,11,13,54,13.10
2005,10,11,13,55,13.10
2005,10,11,13,56,13.00
2005,10,11,13,57,13.00
2005,10,11,13,58,13.10
2005,10,11,13,59,13.10
2005,10,11,14,00,13.20
2005,10,11,14,01,13.30
2005,10,11,14,02,13.30
2005,10,11,14,03,13.20
2005,10,11,14,04,13.20
2005,10,11,14,05,13.10
2005,10,11,14,06,13.10
2005,10,11,14,07,13.10
2005,10,11,14,08,13.10
2005,10,11,14,09,13.00
2005,10,11,14,10,12.90
2005,10,11,14,11,12.90
2005,10,11,14,12,12.80
2005,10,11,14,13,12.80
2005,10,11,14,14,12.80
2005,10,11,14,15,12.80
2005,10,11,14,16,12.80
2005,10,11,14,17,12.80
2005,10,11,14,18,12.80
2005,10,11,14,19,12.90
2005,10,11,14,20,13.00
2005,10,11,14,21,13.00
2005,10,11,14,22,13.00
2005,10,11,14,23,13.10
2005,10,11,14,24,13.30
2005,10,11,14,25,13.30
2005,10,11,14,26,13.40
2005,10,11,14,27,13.50
2005,10,11,14,28,13.50
2005,10,11,14,29,13.50
2005,10,11,14,30,13.60
2005,10,11,14,31,13.70
2005,10,11,14,32,13.70
2005,10,11,14,33,13.70
2005,10,11,14,34,13.60
2005,10,11,14,35,13.60
2005,10,11,14,36,13.60
2005,10,11,14,37,13.70
2005,10,11,14,38,13.70
2005,10,11,14,39,13.80
2005,10,11,14,40,13.90
2005,10,11,14,41,14.00
2005,10,11,14,42,14.00
2005,10,11,14,43,14.00
2005,10,11,14,44,14.00
2005,10,11,14,45,13.90
2005,10,11,14,46,13.80
2005,10,11,14,47,13.70
2005,10,11,14,48,13.70
2005,10,11,14,49,13.70
2005,10,11,14,50,13.70
2005,10,11,14,51,13.70
2005,10,11,14,52,13.70
2005,10,11,14,53,13.70
2005,10,11,14,54,13.70
2005,10,11,14,55,13.80
2005,10,11,14,56,13.80
2005,10,11,14,57,13.90
2005,10,11,14,58,14.00
2005,10,11,14,59,14.00
2005,10,11,15,00,14.00
2005,10,11,15,01,14.10
2005,10,11,15,02,14.00
2005,10,11,15,03,14.00
2005,10,11,15,04,13.90
2005,10,11,15,05,13.90
2005,10,11,15,06,13.80
2005,10,11,15,07,13.80
2005,10,11,15,08,13.80
2005,10,11,15,09,13.80
2005,10,11,15,10,13.80
2005,10,11,15,11,13.70
2005,10,11,15,12,13.70
2005,10,11,15,13,13.70
2005,10,11,15,14,13.70
2005,10,11,15,15,13.70
2005,10,11,15,16,13.70
2005,10,11,15,17,13.70
2005,10,11,15,18,13.70
2005,10,11,15,19,13.70
2005,10,11,15,20,13.70
2005,10,11,15,21,13.70
2005,10,11,15,22,13.70
2005,10,11,15,23,13.70
2005,10,11,15,24,13.80
2005,10,11,15,25,13.80
2005,10,11,15,26,13.80
2005,10,11,15,27,13.80
2005,10,11,15,28,13.80
2005,10,11,15,29,13.80
2005,10,11,15,30,13.90
2005,10,11,15,31,13.90
2005,10,11,15,32,13.90
2005,10,11,15,33,13.90
2005,10,11,15,34,13.90
2005,10,11,15,35,13.90
2005,10,11,15,36,13.90
2005,10,11,15,37,13.90
2005,10,11,15,38,13.70
2005,10,11,15,39,13.70
2005,10,11,15,40,13.70
2005,10,11,15,41,13.70
2005,10,11,15,42,13.70
2005,10,11,15,43,13.70
2005,10,11,15,44,13.80
2005,10,11,15,45,13.80
2005,10,11,15,46,13.80
2005,10,11,15,47,13.80
2005,10,11,15,48,13.80
2005,10,11,15,49,13.80
2005,10,11,15,50,13.80
2005,10,11,15,51,13.70
2005,10,11,15,52,13.70
2005,10,11,15,53,13.70
2005,10,11,15,54,13.70
2005,10,11,15,55,13.70
2005,10,11,15,56,13.70
2005,10,11,15,57,13.70
2005,10,11,15,58,13.80
2005,10,11,15,59,13.70
2005,10,11,16,00,13.70
2005,10,11,16,01,13.70
2005,10,11,16,02,13.70
2005,10,11,16,03,13.70
2005,10,11,16,04,13.70
2005,10,11,16,05,13.60
2005,10,11,16,06,13.60
2005,10,11,16,07,13.60
2005,10,11,16,08,13.60
2005,10,11,16,09,13.50
2005,10,11,16,10,13.40
2005,10,11,16,11,13.40
2005,10,11,16,12,13.40
2005,10,11,16,13,13.40
2005,10,11,16,14,13.40
2005,10,11,16,15,13.40
2005,10,11,16,16,13.40
2005,10,11,16,17,13.40
2005,10,11,16,18,13.40
2005,10,11,16,19,13.40
2005,10,11,16,20,13.30
2005,10,11,16,21,13.40
2005,10,11,16,22,13.50
2005,10,11,16,23,13.50
2005,10,11,16,24,13.50
2005,10,11,16,25,13.60
2005,10,11,16,26,13.60
2005,10,11,16,27,13.50
2005,10,11,16,28,13.50
2005,10,11,16,29,13.50
2005,10,11,16,30,13.50
2005,10,11,16,31,13.50
2005,10,11,16,32,13.50
2005,10,11,16,33,13.50
2005,10,11,16,34,13.50
2005,10,11,16,35,13.50
2005,10,11,16,36,13.50
2005,10,11,16,37,13.50
2005,10,11,16,38,13.50
2005,10,11,16,39,13.50
2005,10,11,16,40,13.60
2005,10,11,16,41,13.60
2005,10,11,16,42,13.60
2005,10,11,16,43,13.60
2005,10,11,16,44,13.60
2005,10,11,16,45,13.50
2005,10,11,16,46,13.50
2005,10,11,16,47,13.50
2005,10,11,16,48,13.50
2005,10,11,16,49,13.50
2005,10,11,16,50,13.60
2005,10,11,16,51,13.60
2005,10,11,16,52,13.60
2005,10,11,16,53,13.70
2005,10,11,16,54,13.70
2005,10,11,16,55,13.70
2005,10,11,16,56,13.80
2005,10,11,16,57,13.90
2005,10,11,16,58,13.90
2005,10,11,16,59,14.00
2005,10,11,17,00,14.00
2005,10,11,17,01,14.10
2005,10,11,17,02,14.10
2005,10,11,17,03,14.20
2005,10,11,17,04,14.20
2005,10,11,17,05,14.20
2005,10,11,17,06,14.20
2005,10,11,17,07,14.20
2005,10,11,17,08,14.20
2005,10,11,17,09,14.20
2005,10,11,17,10,14.20
2005,10,11,17,11,14.20
2005,10,11,17,12,14.20
2005,10,11,17,13,14.20
2005,10,11,17,14,14.10
2005,10,11,17,15,14.10
2005,10,11,17,16,14.10
2005,10,11,17,17,14.00
2005,10,11,17,18,14.00
2005,10,11,17,19,14.00
2005,10,11,17,20,13.90
2005,10,11,17,21,13.90
2005,10,11,17,22,13.80
2005,10,11,17,23,13.80
2005,10,11,17,24,13.80
2005,10,11,17,25,13.70
2005,10,11,17,26,13.70
2005,10,11,17,27,13.70
2005,10,11,17,28,13.60
2005,10,11,17,29,13.60
2005,10,11,17,30,13.50
2005,10,11,17,31,13.50
2005,10,11,17,32,13.40